Regional Weather Roundup
Issued by NWS

Home | Current Version | Previous Version | Graphics & Text | Print | Product List | Glossary On
Versions: 1 2 3 4 5 6 7 8 9 10 11 12 13 14 15 16 17 18 19 20 21 22 23 24 25 26 27 28 29 30 31 32 33 34 35 36 37 38 39 40 41 42 43 44 45 46 47 48 49 50
554
ASUS43 KBIS 271502
RWRND

NORTH DAKOTA REGIONAL WEATHER ROUNDUP
NATIONAL WEATHER SERVICE BISMARCK ND
1000 AM CDT MON MAR 27 2017

NOTE: "FAIR" INDICATES FEW OR NO CLOUDS BELOW 12,000 FEET WITH NO
SIGNIFICANT WEATHER AND/OR OBSTRUCTIONS TO VISIBILITY.


NDZ001>003-009>011-017-271600-
NORTHWEST NORTH DAKOTA

CITY           SKY/WX    TMP DP  RH WIND       PRES   REMARKS
WILLISTON      FAIR      39  30  70 NE3       29.90R
MINOT          PTSUNNY   37  34  89 N12       29.91R FOG
$$

NDZ018>021-031>035-040>046-271600-
SOUTHWEST NORTH DAKOTA

CITY           SKY/WX    TMP DP  RH WIND       PRES   REMARKS
BISMARCK       FAIR      43  35  73 CALM      29.94R
DICKINSON      FAIR      42  35  76 SE3       29.88R
GARRISON         N/A     40  35  83 CALM      29.90S
HETTINGER ARPT SUNNY     45  36  70 SW7       29.92R
$$

NDZ004>008-012>016-024-026-027-054-271600-
NORTHEAST NORTH DAKOTA

CITY           SKY/WX    TMP DP  RH WIND       PRES   REMARKS
GRAND FORKS    FOG       37  37 100 CALM      30.00R VSB 1/4
GRND FRKS AFB  FOG       36  36 100 CALM      30.00S VSB 3/4
DEVILS LAKE    SNOW      32  32 100 SE9       29.95R VSB 1/4
$$

NDZ022-023-025-028>030-036>039-047>053-271600-
SOUTHEAST NORTH DAKOTA

CITY           SKY/WX    TMP DP  RH WIND       PRES   REMARKS
FARGO          FOG       35  35 100 CALM      30.00R VSB<1/4
JAMESTOWN      FAIR      39  38  96 E3        29.95R
$$





USA.gov is the U.S. government's official web portal to all federal, state and local government web resources and services.